User: anonymous   Login
Location: Unspecified
(0.0000°N, 0.0000°E)
Time: 02:39:20
(UTC+02:00)
Language:

NOAA 12 - Orbit

View from above orbital plane
View from above orbital plane
View from above satellite
View from above satellite

Ground track
Ground track

The orbit data is extracted from the following two-line orbital elements,

1 21263U 91032A   14295.16955080  .00000137  00000-0  76167-4 0  4700
2 21263 098.6538 320.4907 0013171 223.8587 177.7585 14.25690753218652
Epoch (UTC): 22 October 2014 04:04:09
Eccentricity: 0.0013171
inclination: 98.6538°
perigee height: 797 km
apogee height: 815 km
right ascension of ascending node: 320.4907°
argument of perigee: 223.8587°
revolutions per day: 14.25690753
mean anomaly at epoch: 177.7585°
orbit number at epoch: 21865

The dashed part of the orbit path shows where the satellite is in the earth's shadow,  

DLR